KBVU

Boulder City Municipal Airport

Airport
ICAO code
KBVU
Summary
ICAO Region
NAM
ICAO Territory
Location

Boulder City, Nevada,

Coordinates
35° 56' 51" N , 114° 51' 41" W
KCC
Airport LOS
Parallel Runway Operation
Metar
Observation
KBVU 302055Z AUTO VRB04KT 10SM 04/01 A3003 RMK AO2
Station
BOULDER CITY
Date/Time
2023-01-30 20:55:00
Wind speed
04 kts
Lowest cloud amount
n/a
Temperature
4°C
Dew point
1°C
Humidity
80%
Weather condition
n/a

Description

Boulder City Municipal Airport is a public-use airport located 1.6 k) southwest of the central business district of Boulder City, in Clark County, Nevada.

Climatology

Hot Desert Climate (Köppen climate classification BWh) - Hot desert climates are typically found in the subtropics where there is unbroken sunshine for the whole year due to the stable descending air and high pressure, little or no precipitation. Maximum temperatures of 40°C to 45°C are not uncommon, particularly during the warmer months of the year. During colder periods of the year, night-time temperatures can drop to freezing or below due to the exceptional radiation loss under the clear skies. However, very rarely do temperatures drop far below freezing.

Very little rainfall but thunderstorms can occur at all times of the year. Occasional dust storms.

Airport map

Aerial View

SKYbrary Partners:

Safety knowledge contributed by: